KB5DPX Weather Reports


Display with metric or nautical units.
time (UTC)temp
F
wind
direction
speed
MPH
gust
MPH
rain 1hr
in
rain 24hr
in
rain mn
in
humidity
%
barometer
mb
20191215201245 25 246 8.0 10.0 0.00 0.00 0.00 81 1017.6
20191215200801 24 279 5.0 10.0 0.00 0.00 0.00 83 1017.5
20191215200244 24 279 3.0 8.0 0.00 0.00 0.00 85 1017.4
20191215195750 24 280 4.0 12.0 0.00 0.01 0.00 85 1017.4
20191215195252 24 280 6.0 12.0 0.00 0.01 0.00 85 1017.4
20191215194754 24 287 6.0 11.0 0.00 0.01 0.00 86 1017.3
20191215194237 24 285 5.0 13.0 0.00 0.01 0.00 87 1017.2
20191215193750 24 304 8.0 13.0 0.00 0.01 0.00 87 1017.3
20191215193235 24 281 7.0 13.0 0.00 0.01 0.00 87 1017.4
20191215192742 24 289 9.0 13.0 0.00 0.01 0.00 88 1017.2
20191215192253 24 311 8.0 12.0 0.00 0.01 0.00 88 1017.1
20191215191752 24 304 3.0 15.0 0.00 0.01 0.00 87 1017.2
20191215191254 23 311 7.0 15.0 0.00 0.01 0.00 86 1017.0
20191215190756 24 317 7.0 10.0 0.00 0.01 0.00 85 1017.1
20191215190257 24 329 7.0 12.0 0.00 0.01 0.00 86 1017.1
20191215185742 23 285 7.0 12.0 0.00 0.02 0.00 85 1017.0
20191215185255 23 278 7.0 11.0 0.00 0.02 0.00 85 1017.0
20191215184738 23 315 3.0 9.0 0.00 0.02 0.00 83 1016.9
20191215184248 23 315 4.0 11.0 0.00 0.02 0.00 83 1016.9
20191215183752 23 303 8.0 11.0 0.00 0.02 0.00 83 1016.9
20191215183254 23 326 7.0 12.0 0.00 0.02 0.00 82 1016.9
20191215182758 23 309 7.0 13.0 0.00 0.02 0.00 81 1016.9
20191215182243 24 306 8.0 15.0 0.00 0.02 0.00 81 1016.8
20191215181802 24 330 9.0 15.0 0.00 0.02 0.00 79 1016.7
20191215181247 23 320 9.0 13.0 0.00 0.02 0.00 79 1016.5
20191215180800 24 320 8.0 12.0 0.00 0.02 0.00 79 1016.5
20191215180259 24 327 8.0 12.0 0.00 0.02 0.00 79 1016.4
20191215175804 24 333 3.0 12.0 0.00 0.03 0.00 78 1016.3
20191215175305 23 360 7.0 12.0 0.00 0.03 0.00 78 1016.4
20191215174747 23 310 7.0 14.0 0.00 0.03 0.00 78 1016.5
20191215174301 23 314 8.0 15.0 0.00 0.03 0.00 78 1016.6
20191215173745 23 323 10.0 15.0 0.00 0.03 0.00 77 1016.5
20191215173259 23 305 10.0 15.0 0.00 0.03 0.00 77 1016.5
20191215172755 23 318 8.0 13.0 0.00 0.03 0.00 75 1016.6
20191215172256 23 296 9.0 13.0 0.00 0.03 0.00 74 1016.5
20191215171757 23 313 7.0 14.0 0.00 0.03 0.00 75 1016.5
20191215171258 23 344 9.0 13.0 0.00 0.03 0.00 74 1016.5
20191215170741 23 326 9.0 15.0 0.00 0.03 0.00 74 1016.4
20191215170254 23 292 10.0 15.0 0.00 0.03 0.00 73 1016.5
20191215165757 23 305 5.0 17.0 0.00 0.04 0.00 73 1016.4
20191215165257 23 321 9.0 17.0 0.00 0.04 0.00 72 1016.4
20191215164757 23 301 6.0 13.0 0.00 0.04 0.00 72 1016.4
20191215164302 23 295 7.0 11.0 0.00 0.04 0.00 74 1016.5
20191215163746 23 301 6.0 12.0 0.00 0.04 0.00 74 1016.5
20191215163258 23 322 7.0 12.0 0.00 0.04 0.00 75 1016.4
20191215162742 23 317 8.0 13.0 0.00 0.04 0.00 76 1016.4
20191215162255 23 355 8.0 12.0 0.00 0.04 0.00 77 1016.4
20191215161758 23 344 8.0 13.0 0.00 0.04 0.00 78 1016.5
20191215161255 23 338 10.0 13.0 0.00 0.04 0.00 78 1016.3
20191215160739 23 328 6.0 12.0 0.00 0.04 0.00 78 1016.4
20191215160316 23 316 7.0 13.0 0.00 0.04 0.00 77 1016.3
20191215155738 23 315 9.0 13.0 0.00 0.04 0.00 75 1016.2
20191215155253 23 327 8.0 13.0 0.00 0.04 0.00 76 1016.2
20191215154756 23 348 10.0 13.0 0.00 0.04 0.00 76 1016.1
20191215154238 23 321 8.0 15.0 0.00 0.04 0.00 76 1016.1
20191215153747 23 306 10.0 16.0 0.00 0.04 0.00 75 1016.0
20191215153252 23 346 8.0 16.0 0.00 0.04 0.00 74 1015.9
20191215152754 23 293 10.0 17.0 0.00 0.04 0.00 74 1015.7
20191215152259 23 340 9.0 16.0 0.00 0.04 0.00 74 1015.6
20191215151741 22 306 6.0 16.0 0.00 0.04 0.00 74 1015.5
20191215151243 22 318 11.0 16.0 0.00 0.04 0.00 73 1015.5
20191215150754 22 326 9.0 14.0 0.00 0.04 0.00 74 1015.5
20191215150254 22 304 8.0 14.0 0.00 0.04 0.00 75 1015.6
20191215145757 22 355 8.0 14.0 0.00 0.05 0.00 77 1015.3
20191215145300 22 342 8.0 18.0 0.00 0.05 0.00 76 1015.3
20191215144804 22 340 7.0 18.0 0.00 0.05 0.00 75 1015.1
20191215144245 22 327 11.0 16.0 0.00 0.05 0.00 76 1015.2
20191215143757 22 311 8.0 20.0 0.00 0.05 0.00 75 1015.0
20191215143241 22 332 13.0 20.0 0.00 0.05 0.00 74 1014.9
20191215142754 22 349 14.0 17.0 0.00 0.05 0.00 73 1014.8
20191215142254 22 313 12.0 18.0 0.00 0.05 0.00 72 1014.7
20191215141738 22 324 12.0 18.0 0.00 0.05 0.00 74 1014.7
20191215141251 22 339 7.0 18.0 0.00 0.05 0.00 75 1014.7
20191215140755 22 335 11.0 18.0 0.00 0.05 0.00 75 1014.6
20191215140237 22 309 12.0 20.0 0.00 0.05 0.00 76 1014.4
20191215135749 22 350 12.0 20.0 0.00 0.05 0.00 75 1014.3
20191215135258 22 309 11.0 22.0 0.00 0.05 0.00 75 1014.3
20191215134742 22 327 15.0 22.0 0.00 0.05 0.00 74 1014.1
20191215134250 22 324 11.0 15.0 0.00 0.05 0.00 75 1014.1
20191215133755 22 326 9.0 17.0 0.00 0.05 0.00 74 1014.1
20191215133258 22 319 9.0 18.0 0.00 0.05 0.00 75 1014.1
20191215132737 22 306 10.0 24.0 0.00 0.05 0.00 75 1013.9
20191215132250 22 315 13.0 24.0 0.00 0.05 0.00 74 1013.8
20191215131801 21 314 11.0 21.0 0.00 0.05 0.00 75 1013.7
20191215131243 21 317 10.0 20.0 0.00 0.05 0.00 75 1013.8
20191215130750 21 286 13.0 21.0 0.00 0.05 0.00 76 1013.8
20191215130236 21 300 10.0 20.0 0.00 0.05 0.00 79 1013.7
20191215125748 21 301 12.0 17.0 0.00 0.05 0.00 79 1013.5
20191215125303 21 300 9.0 15.0 0.00 0.05 0.00 81 1013.6
20191215124747 21 343 10.0 17.0 0.00 0.05 0.00 81 1013.5
20191215124301 21 336 9.0 18.0 0.00 0.05 0.00 80 1013.5
20191215123742 21 336 12.0 18.0 0.00 0.05 0.00 80 1013.4
20191215123253 21 310 13.0 18.0 0.00 0.05 0.00 79 1013.2
20191215122750 21 312 11.0 18.0 0.00 0.05 0.00 79 1013.2
20191215122253 21 318 11.0 21.0 0.00 0.05 0.00 80 1013.2
20191215121756 21 317 15.0 22.0 0.00 0.05 0.00 82 1013.2
20191215121300 21 341 14.0 22.0 0.00 0.05 0.00 83 1013.0
20191215120807 21 296 11.0 19.0 0.00 0.05 0.00 83 1012.9
20191215120302 21 328 11.0 19.0 0.00 0.05 0.00 84 1012.9
20191215115741 21 326 8.0 15.0 0.00 0.05 0.00 86 1012.8
20191215115248 21 313 10.0 15.0 0.00 0.05 0.00 87 1012.7
20191215114750 21 302 9.0 17.0 0.00 0.05 0.00 87 1012.6
20191215114253 21 298 10.0 17.0 0.00 0.05 0.00 88 1012.5
20191215113735 21 335 5.0 11.0 0.00 0.05 0.00 88 1012.4
20191215113248 21 311 6.0 12.0 0.00 0.05 0.00 88 1012.2
20191215112803 21 314 9.0 13.0 0.00 0.05 0.00 88 1012.1
20191215112246 21 327 7.0 14.0 0.00 0.05 0.00 87 1011.9
20191215111756 21 318 8.0 14.0 0.00 0.05 0.00 87 1011.9
20191215111254 21 324 8.0 12.0 0.00 0.05 0.00 88 1011.8
20191215110756 21 302 8.0 13.0 0.00 0.05 0.00 88 1011.6
20191215110258 21 317 10.0 14.0 0.00 0.05 0.00 87 1011.6
20191215105801 21 321 10.0 14.0 0.00 0.05 0.00 88 1011.4
20191215105306 21 350 10.0 14.0 0.00 0.05 0.00 88 1011.4
20191215104746 21 348 9.0 13.0 0.00 0.05 0.00 88 1011.3
20191215104257 21 335 8.0 14.0 0.00 0.05 0.00 87 1011.3
20191215103752 21 342 8.0 14.0 0.00 0.05 0.00 87 1011.1
20191215103237 21 327 8.0 12.0 0.00 0.05 0.00 88 1011.0
20191215102749 21 355 7.0 12.0 0.00 0.05 0.00 88 1010.8
20191215102253 21 355 8.0 14.0 0.00 0.05 0.00 88 1010.8
20191215101737 21 355 8.0 14.0 0.00 0.05 0.00 88 1010.7
20191215101249 21 323 8.0 13.0 0.00 0.05 0.00 88 1010.7
20191215100759 21 335 8.0 11.0 0.00 0.05 0.00 89 1010.6
20191215100300 21 350 6.0 12.0 0.00 0.05 0.00 88 1010.4
20191215095800 21 344 6.0 12.0 0.00 0.05 0.00 89 1010.3
20191215095258 21 13 7.0 13.0 0.00 0.05 0.00 89 1010.2
20191215094744 22 11 7.0 14.0 0.00 0.05 0.00 89 1010.2
20191215094301 22 334 11.0 14.0 0.00 0.05 0.00 88 1010.0
20191215093744 22 355 9.0 15.0 0.00 0.05 0.00 88 1009.8
20191215093255 22 355 8.0 15.0 0.00 0.05 0.00 88 1009.8
20191215092756 22 343 10.0 15.0 0.00 0.05 0.00 87 1009.7
20191215092255 22 336 11.0 16.0 0.00 0.05 0.00 87 1009.7
20191215091250 22 287 10.0 19.0 0.00 0.05 0.00 86 1009.5
20191215090750 22 313 12.0 19.0 0.00 0.05 0.00 86 1009.3
20191215090236 22 259 10.0 18.0 0.00 0.05 0.00 85 1009.1
20191215085748 22 297 13.0 19.0 0.00 0.05 0.00 85 1009.2
20191215085258 22 304 12.0 18.0 0.00 0.05 0.00 85 1009.1
20191215084743 22 294 13.0 20.0 0.00 0.05 0.00 86 1009.0
20191215084248 22 342 11.0 20.0 0.00 0.05 0.00 86 1009.0
20191215083751 23 337 9.0 15.0 0.00 0.05 0.00 88 1008.9
20191215083235 23 333 9.0 14.0 0.00 0.05 0.00 88 1008.8
20191215082746 23 350 7.0 13.0 0.00 0.05 0.00 88 1008.8
20191215082257 23 333 8.0 14.0 0.00 0.05 0.00 88 1008.7
20191215081741 23 315 9.0 15.0 0.00 0.05 0.00 88 1008.6
20191215081254 23 345 10.0 15.0 0.00 0.05 0.00 87 1008.5
20191215080755 23 333 10.0 19.0 0.00 0.05 0.00 87 1008.6
20191215080259 23 350 12.0 19.0 0.00 0.05 0.00 88 1008.4
20191215075802 23 337 12.0 16.0 0.00 0.06 0.00 87 1008.3
20191215075245 23 319 8.0 15.0 0.00 0.06 0.00 87 1008.2
20191215074803 23 327 9.0 16.0 0.00 0.06 0.00 87 1008.0
20191215074248 23 350 11.0 15.0 0.00 0.06 0.00 87 1008.0
20191215073759 23 344 10.0 16.0 0.00 0.06 0.00 87 1007.8
20191215073240 23 319 10.0 16.0 0.00 0.06 0.00 87 1007.8
20191215072749 23 327 8.0 17.0 0.00 0.06 0.00 87 1007.8
20191215072254 24 325 11.0 20.0 0.00 0.06 0.00 87 1007.6
20191215071737 24 315 14.0 20.0 0.00 0.06 0.00 88 1007.5
20191215071247 24 321 10.0 18.0 0.00 0.06 0.00 89 1007.3
20191215070759 24 335 13.0 19.0 0.00 0.06 0.00 90 1007.3
20191215070300 24 311 14.0 19.0 0.00 0.06 0.00 90 1007.1
20191215065759 24 328 9.0 18.0 0.00 0.06 0.00 90 1007.0
20191215065258 24 336 13.0 18.0 0.00 0.06 0.00 90 1006.9
20191215064801 24 336 12.0 17.0 0.00 0.06 0.00 90 1006.9
20191215064301 24 321 12.0 19.0 0.00 0.06 0.00 89 1006.8
20191215063802 25 323 13.0 19.0 0.00 0.06 0.00 89 1006.7
20191215063245 25 319 12.0 19.0 0.00 0.06 0.00 89 1006.6
20191215062756 25 332 12.0 19.0 0.00 0.06 0.00 89 1006.4
20191215062243 25 348 12.0 18.0 0.00 0.06 0.00 90 1006.3
20191215061756 26 334 12.0 17.0 0.00 0.06 0.00 90 1006.2
20191215061257 26 313 10.0 18.0 0.00 0.06 0.00 97 1006.0
20191215060759 26 311 12.0 21.0 0.00 0.06 0.00 90 1006.0
20191215060303 26 302 11.0 21.0 0.00 0.06 0.00 90 1005.8
20191215055746 26 300 14.0 21.0 0.00 0.06 0.00 91 1005.9
20191215055257 26 332 14.0 21.0 0.00 0.06 0.00 90 1005.7
20191215054740 26 331 12.0 19.0 0.00 0.06 0.00 90 1005.7
20191215054254 27 309 13.0 20.0 0.00 0.06 0.00 89 1005.7
20191215053757 27 323 12.0 19.0 0.00 0.06 0.00 89 1005.6
20191215053258 27 319 12.0 20.0 0.00 0.06 0.00 89 1005.5
20191215052738 27 322 14.0 21.0 0.00 0.06 0.00 89 1005.3
20191215052249 27 273 12.0 21.0 0.00 0.06 0.00 88 1005.2
20191215051800 27 292 13.0 20.0 0.00 0.06 0.00 88 1005.2
20191215051243 27 304 14.0 20.0 0.00 0.06 0.00 88 1005.1
20191215050757 27 294 11.0 20.0 0.00 0.06 0.00 89 1005.0
20191215050241 27 296 12.0 20.0 0.00 0.06 0.00 89 1004.9
20191215045801 27 316 11.0 19.0 0.00 0.06 0.06 89 1004.7
20191215045304 27 304 11.0 19.0 0.00 0.06 0.06 89 1004.7
20191215044806 27 302 13.0 19.0 0.00 0.06 0.06 89 1004.6
20191215044303 27 288 13.0 19.0 0.00 0.06 0.06 89 1004.6
20191215043806 28 315 13.0 18.0 0.00 0.06 0.06 89 1004.5
20191215043245 28 327 11.0 18.0 0.00 0.06 0.06 90 1004.5
20191215042757 28 331 12.0 20.0 0.00 0.06 0.06 90 1004.4
20191215042255 28 326 14.0 21.0 0.00 0.06 0.06 90 1004.4
20191215041759 28 345 14.0 21.0 0.00 0.06 0.06 89 1004.3
20191215041300 28 322 12.0 22.0 0.00 0.06 0.06 89 1004.2
20191215040739 28 309 14.0 22.0 0.00 0.06 0.06 90 1004.1
20191215040253 28 295 10.0 22.0 0.00 0.06 0.06 90 1004.4
20191215035739 28 315 10.0 24.0 0.00 0.07 0.06 90 1004.2
20191215035251 28 307 14.0 22.0 0.00 0.07 0.06 90 1004.1
20191215034752 28 307 13.0 22.0 0.00 0.07 0.06 90 1004.1
20191215034237 28 296 11.0 21.0 0.00 0.07 0.06 90 1004.1
20191215033749 28 292 12.0 21.0 0.00 0.07 0.06 90 1004.0
20191215033254 28 311 13.0 20.0 0.00 0.07 0.06 91 1004.0
20191215032758 28 312 13.0 23.0 0.00 0.07 0.06 90 1004.0
20191215032302 28 322 14.0 23.0 0.00 0.07 0.06 91 1003.9
20191215031745 28 306 13.0 20.0 0.00 0.07 0.06 91 1003.9
20191215031255 28 311 12.0 20.0 0.00 0.07 0.06 90 1004.0
20191215030755 28 302 14.0 20.0 0.00 0.07 0.06 91 1003.9
20191215030258 28 329 12.0 21.0 0.00 0.07 0.06 90 1004.0
20191215025802 28 338 11.0 21.0 0.00 0.07 0.06 90 1003.9
20191215025244 28 323 13.0 21.0 0.00 0.07 0.06 90 1003.9
20191215024802 28 315 15.0 20.0 0.00 0.07 0.06 90 1003.9
20191215024243 28 307 12.0 17.0 0.00 0.07 0.06 90 1003.9
20191215023755 28 322 12.0 19.0 0.00 0.07 0.06 90 1003.9
20191215023254 28 302 13.0 23.0 0.00 0.07 0.06 89 1003.8
20191215022739 28 349 10.0 23.0 0.00 0.07 0.06 89 1003.8
20191215022251 28 335 13.0 19.0 0.00 0.07 0.06 89 1004.0
20191215021757 28 315 11.0 18.0 0.00 0.07 0.06 89 1003.9
20191215021242 28 291 13.0 22.0 0.00 0.07 0.06 89 1003.8
20191215020755 28 304 15.0 22.0 0.00 0.07 0.06 89 1003.8
20191215020241 28 309 13.0 19.0 0.00 0.07 0.06 89 1003.7
20191215015752 28 302 13.0 21.0 0.00 0.08 0.06 88 1003.7
20191215015253 28 312 9.0 22.0 0.00 0.08 0.06 88 1003.7
20191215014757 28 300 15.0 22.0 0.00 0.08 0.06 88 1003.7
20191215014256 28 290 14.0 23.0 0.00 0.08 0.06 88 1003.6
20191215013802 28 319 14.0 23.0 0.00 0.08 0.06 88 1003.5
20191215013247 28 302 13.0 22.0 0.00 0.08 0.06 88 1003.7
20191215012737 28 319 13.0 21.0 0.00 0.08 0.06 88 1003.7
20191215012250 28 306 12.0 20.0 0.00 0.08 0.06 89 1003.6
20191215011754 28 329 12.0 20.0 0.00 0.08 0.06 88 1003.6
20191215011255 28 306 10.0 18.0 0.00 0.08 0.06 88 1003.6
20191215010758 28 290 12.0 18.0 0.00 0.08 0.06 88 1003.6
20191215010302 28 336 11.0 17.0 0.00 0.08 0.06 88 1003.6
20191215005746 28 313 12.0 17.0 0.00 0.08 0.06 87 1003.7
20191215005300 29 311 11.0 20.0 0.00 0.08 0.06 87 1003.5
20191215004743 29 306 12.0 20.0 0.00 0.08 0.06 87 1003.5
20191215004257 29 304 11.0 16.0 0.00 0.08 0.06 87 1003.6
20191215003743 29 306 12.0 16.0 0.00 0.08 0.06 87 1003.6
20191215003250 29 302 12.0 18.0 0.00 0.08 0.06 87 1003.5
20191215002752 29 311 11.0 18.0 0.00 0.08 0.06 88 1003.5
20191215002257 29 319 11.0 19.0 0.00 0.08 0.06 90 1003.5
20191215001742 29 304 11.0 17.0 0.00 0.08 0.06 90 1003.5
20191215001237 29 306 11.0 17.0 0.00 0.08 0.06 91 1003.5
20191215000748 29 304 11.0 17.0 0.00 0.08 0.06 91 1003.5
20191215000301 29 312 11.0 16.0 0.00 0.08 0.06 91 1003.5
20191214235745 29 314 12.0 16.0 0.00 0.09 0.06 92 1003.4
20191214235249 29 334 8.0 16.0 0.00 0.09 0.06 91 1003.4
20191214234753 29 314 12.0 18.0 0.00 0.09 0.06 91 1003.5
20191214234238 29 319 11.0 19.0 0.00 0.09 0.06 91 1003.4
20191214233751 29 314 12.0 19.0 0.00 0.09 0.06 90 1003.4
20191214233302 30 295 11.0 20.0 0.00 0.09 0.06 90 1003.5
20191214232745 30 299 13.0 20.0 0.00 0.09 0.06 90 1003.4
20191214232255 30 309 11.0 18.0 0.00 0.09 0.06 90 1003.4
20191214231741 30 308 10.0 16.0 0.00 0.09 0.06 89 1003.4
20191214231250 30 311 10.0 19.0 0.00 0.09 0.06 88 1003.4
20191214230755 31 317 14.0 20.0 0.00 0.09 0.06 86 1003.4
20191214230258 31 338 13.0 20.0 0.00 0.09 0.06 87 1003.4
20191214225759 31 312 11.0 19.0 0.00 0.09 0.06 87 1003.3
20191214225303 31 338 10.0 15.0 0.00 0.09 0.06 86 1003.3
20191214224745 31 325 9.0 13.0 0.00 0.09 0.06 87 1003.3
20191214224256 31 319 10.0 13.0 0.00 0.09 0.06 87 1003.3
20191214223756 32 338 9.0 13.0 0.00 0.09 0.06 87 1003.1
20191214223259 32 332 10.0 14.0 0.00 0.09 0.06 87 1003.1
20191214222801 32 330 9.0 14.0 0.00 0.09 0.06 87 1003.1
20191214222245 32 336 7.0 13.0 0.00 0.09 0.06 87 1003.1
20191214221757 32 321 8.0 13.0 0.00 0.09 0.06 87 1003.0
20191214221243 32 323 8.0 12.0 0.00 0.09 0.06 87 1003.0
20191214220754 32 324 7.0 12.0 0.00 0.09 0.06 87 1003.0
20191214220254 32 329 8.0 14.0 0.00 0.09 0.06 86 1002.9
20191214215759 32 321 10.0 14.0 0.00 0.10 0.06 86 1002.8
20191214215301 32 325 8.0 12.0 0.00 0.10 0.06 87 1002.7
20191214214803 32 336 9.0 12.0 0.00 0.10 0.06 87 1002.8
20191214214245 32 329 7.0 12.0 0.00 0.10 0.06 88 1002.8
20191214213737 32 316 4.0 9.0 0.00 0.10 0.06 87 1002.7
20191214213249 32 320 6.0 12.0 0.00 0.10 0.06 87 1002.7
20191214212802 32 325 8.0 12.0 0.00 0.10 0.06 87 1002.6
20191214212242 32 329 7.0 10.0 0.00 0.10 0.06 87 1002.6
20191214211750 32 336 3.0 9.0 0.00 0.10 0.06 86 1002.6
20191214211256 32 336 6.0 10.0 0.00 0.10 0.06 86 1002.6
20191214210801 32 342 6.0 11.0 0.00 0.10 0.06 86 1002.6
20191214210246 32 336 6.0 11.0 0.00 0.10 0.06 85 1002.4
20191214205759 32 338 6.0 11.0 0.00 0.12 0.06 85 1002.5
20191214205244 32 335 8.0 11.0 0.01 0.12 0.06 85 1002.5
20191214204756 33 330 5.0 9.0 0.01 0.12 0.06 87 1002.5
20191214204255 33 330 6.0 9.0 0.01 0.12 0.06 87 1002.4
20191214203755 33 329 3.0 8.0 0.01 0.12 0.06 87 1002.5
20191214203239 33 329 5.0 9.0 0.01 0.12 0.06 87 1002.5
20191214202749 33 330 4.0 9.0 0.01 0.12 0.06 88 1002.6
20191214202301 33 330 5.0 9.0 0.01 0.12 0.06 88 1002.6
20191214201745 33 329 5.0 9.0 0.01 0.12 0.06 87 1002.5